Davenport, IA

10:32 AM CDT on May 23, 2018 (GMT -0500)
Davenport Municipal

Weather History for KDVN - April, 2014

Change the Weather History Date:

Wednesday, April 30, 2014

  Actual Average Record
Temperature  
Mean Temperature 43 °F 55 °F  
Max Temperature 47 °F 67 °F 90 °F (1952)
Min Temperature 38 °F 44 °F 30 °F (2005)
Degree Days  
Heating Degree Days 22 10  
Month to date heating degree days 479 446  
Since 1 July heating degree days 7379 6304  
Cooling Degree Days 0 0  
Month to date cooling degree days 6 6  
Year to date cooling degree days 6 6  
Moisture  
Dew Point 37 °F    
Average Humidity 83    
Maximum Humidity 96    
Minimum Humidity 70    
Precipitation  
Precipitation 0.02 in 0.18 in 1.43 in (2006)
Month to date precipitation 4.58 3.51  
Year to date precipitation 7.89 8.56  
Snow  
Snow 0.00 in - - ()
Month to date snowfall T  
Since 1 July snowfall 50.2  
Snow Depth 0.00 in    
Sea Level Pressure  
Sea Level Pressure 29.75 in    
Wind  
Wind Speed 15 mph (WSW)    
Max Wind Speed 22 mph    
Max Gust Speed 25 mph    
Visibility 8 miles    
Events Rain    
T = Trace of Precipitation, MM = Missing Value Source: NWS Daily Summary

Daily Weather History Graph

Daily Weather History Graph

Search for Another Location

Airport or City:

Astronomy

Apr. 30, 2014 Rise Set
Actual Time 6:00 AM CDT 7:59 PM CDT
Civil Twilight 5:30 AM CDT 8:29 PM CDT
Nautical Twilight 4:53 AM CDT 9:06 PM CDT
Astronomical Twilight 4:13 AM CDT 9:46 PM CDT
Moon 7:01 AM CDT (4/30) 9:39 PM CDT (4/30)
Length of Visible Light 14h 59m
Length of Day
13h 58m
New Moon, 2% of the Moon is Illuminated
Apr 30
New Moon
May 6
First Quarter
May 14
Full
May 21
Last Quarter
May 28
New

Hourly Weather History & Observations

Time (CDT) Temp. Windchill Dew Point Humidity Pressure Visibility Wind Dir Wind Speed Gust Speed Precip Events Conditions
12:52 AM 45.0 °F 38.5 °F 43.0 °F 93% 29.66 in 3.0 mi WNW 13.8 mph - N/A   Overcast
1:48 AM 42.8 °F 34.5 °F 41.0 °F 93% 29.66 in 2.5 mi West 18.4 mph - N/A   Overcast
1:52 AM 43.0 °F 35.4 °F 41.0 °F 93% 29.67 in 3.0 mi West 16.1 mph - N/A   Overcast
2:18 AM 42.1 °F 33.9 °F 41.0 °F 96% 29.67 in 2.0 mi West 17.3 mph - N/A   Overcast
2:27 AM 42.1 °F 34.2 °F 39.9 °F 92% 29.67 in 1.8 mi West 16.1 mph - N/A   Overcast
2:34 AM 41.0 °F 32.8 °F 39.9 °F 96% 29.67 in 2.5 mi West 16.1 mph - N/A   Overcast
2:52 AM 41.0 °F 33.1 °F 39.0 °F 93% 29.68 in 3.0 mi West 15.0 mph - N/A   Overcast
3:14 AM 41.0 °F 32.8 °F 37.9 °F 89% 29.68 in 10.0 mi West 16.1 mph - N/A   Overcast
3:52 AM 39.9 °F 32.1 °F 37.0 °F 89% 29.70 in 10.0 mi West 13.8 mph - N/A   Overcast
4:52 AM 39.0 °F 30.3 °F 37.0 °F 93% 29.71 in 10.0 mi West 16.1 mph - N/A   Overcast
5:52 AM 39.0 °F 29.9 °F 36.0 °F 89% 29.73 in 10.0 mi West 17.3 mph 24.2 mph N/A   Overcast
6:28 AM 37.9 °F 29.6 °F 34.0 °F 86% 29.73 in 10.0 mi West 13.8 mph - N/A   Overcast
6:52 AM 37.9 °F 29.6 °F 35.1 °F 89% 29.75 in 10.0 mi WSW 13.8 mph - N/A   Overcast
7:52 AM 37.9 °F 28.5 °F 34.0 °F 86% 29.75 in 10.0 mi West 17.3 mph - N/A   Overcast
8:52 AM 39.0 °F 29.6 °F 34.0 °F 82% 29.75 in 10.0 mi WSW 18.4 mph - N/A   Overcast
9:49 AM 41.0 °F 32.5 °F 35.6 °F 81% 29.75 in 10.0 mi WSW 17.3 mph - N/A   Overcast
10:52 AM 39.9 °F 31.8 °F 34.0 °F 79% 29.78 in 10.0 mi WSW 15.0 mph - N/A   Overcast
11:52 AM 41.0 °F 33.1 °F 34.0 °F 76% 29.78 in 10.0 mi WSW 15.0 mph - N/A   Overcast
12:52 PM 44.1 °F 37.4 °F 36.0 °F 73% 29.78 in 10.0 mi WSW 13.8 mph - N/A   Overcast
1:39 PM 45.0 °F 37.6 °F 36.0 °F 71% 29.76 in 10.0 mi WSW 17.3 mph - N/A   Overcast
1:52 PM 45.0 °F 38.2 °F 36.0 °F 71% 29.78 in 10.0 mi West 15.0 mph - N/A   Overcast
2:38 PM 46.0 °F 39.6 °F 37.0 °F 71% 29.77 in 10.0 mi WSW 15.0 mph - N/A   Overcast
2:52 PM 46.0 °F 40.2 °F 37.0 °F 71% 29.78 in 10.0 mi West 12.7 mph - N/A   Overcast
3:01 PM 45.0 °F 38.5 °F 36.0 °F 71% 29.77 in 10.0 mi West 13.8 mph - N/A   Overcast
3:48 PM 46.4 °F 40.4 °F 37.4 °F 71% 29.77 in 10.0 mi West 13.8 mph - N/A   Overcast
3:52 PM 46.0 °F 39.6 °F 37.0 °F 71% 29.78 in 10.0 mi WSW 15.0 mph - N/A   Overcast
4:44 PM 46.0 °F 40.2 °F 37.9 °F 73% 29.77 in 10.0 mi West 12.7 mph - 0.00 in   Overcast
4:52 PM 46.0 °F 39.9 °F 37.9 °F 73% 29.78 in 10.0 mi West 13.8 mph - 0.00 in   Overcast
5:52 PM 46.0 °F 39.6 °F 37.0 °F 71% 29.78 in 10.0 mi West 15.0 mph - N/A   Overcast
6:52 PM 45.0 °F 38.9 °F 37.0 °F 74% 29.78 in 10.0 mi WSW 12.7 mph - 0.00 in   Overcast
7:52 PM 44.1 °F 37.1 °F 36.0 °F 73% 29.79 in 10.0 mi West 15.0 mph - N/A   Overcast
8:52 PM 41.0 °F 32.8 °F 36.0 °F 82% 29.80 in 10.0 mi WSW 16.1 mph - N/A   Scattered Clouds
9:18 PM 41.0 °F 33.9 °F 37.0 °F 86% 29.78 in 10.0 mi WSW 12.7 mph - 0.00 in   Overcast
9:52 PM 41.0 °F 33.9 °F 37.9 °F 89% 29.80 in 10.0 mi WSW 12.7 mph - 0.00 in   Overcast
10:42 PM 41.0 °F 35.2 °F 37.9 °F 89% 29.77 in 6.0 mi WSW 9.2 mph - 0.01 in Rain Light Rain
10:52 PM 41.0 °F 34.7 °F 39.0 °F 93% 29.78 in 5.0 mi SW 10.4 mph - 0.02 in Rain Light Rain
11:15 PM 41.0 °F 33.1 °F 37.9 °F 89% 29.76 in 10.0 mi WSW 15.0 mph - 0.00 in Rain Light Rain
11:52 PM 41.0 °F 33.5 °F 37.9 °F 89% 29.76 in 10.0 mi WSW 13.8 mph - 0.00 in   Overcast